Temp
63 62 62 62 63 64 64 63 63 63 63 63 63 63 63 64 65 64 65 64 64 65 66 66 67 67 67 67 67 67 67 67 67 66 66 66 65 66 65 65 65 65
62 63 63 63 62 63 63 63 64 64 63 63 64 64 64 64 65 65 64 64 65 64 65 66 67 67 67 66 66 66 66 66 66 66 66 66 66 65 66 66 65 65
62 62 62 62 62 62 62 63 63 63 64 64 64 65 64 65 65 65 64 64 65 65 65 66 66 67 67 67 66 66 66 65 66 65 66 66 65 66 66 66 65 65
60 62 62 62 62 62 63 62 62 63 63 63 64 64 65 65 65 64 64 66 64 65 65 65 65 65 66 66 66 65 66 66 66 66 66 66 66 66 66 65 65 65
61 61 61 62 62 63 63 63 63 62 62 63 63 64 64 64 64 64 64 64 64 65 64 65 65 65 65 65 66 65 65 65 65 65 65 65 65 65 65 65 65 65
61 62 63 62 63 62 62 62 63 63 63 63 63 63 63 64 63 63 64 64 63 64 64 64 65 65 66 65 65 65 65 64 64 64 65 65 65 64 65 65 64 64
59 61 63 63 63 63 62 63 63 63 63 63 64 63 63 63 63 63 64 64 64 64 64 64 64 64 64 65 64 63 63 64 64 64 64 64 63 63 64 64 64 64
58 60 62 62 62 62 62 62 62 63 63 63 62 63 63 63 63 63 64 64 64 64 64 64 64 64 63 63 64 63 63 63 63 63 64 63 62 63 63 64 64 64
58 59 60 60 59 59 60 62 62 62 63 63 63 63 63 63 63 63 64 64 64 64 64 64 64 64 63 63 64 64 64 64 64 64 63 62 63 62 62 62 63 63
57 58 58 58 58 58 58 59 60 62 63 62 62 62 63 63 64 64 64 64 64 64 63 63 63 63 63 63 63 63 63 63 63 64 63 63 63 62 62 62 63 63
57 57 57 57 57 57 57 57 58 58 59 61 62 62 63 63 63 64 63 63 62 63 63 63 63 63 62 62 62 63 63 63 63 63 63 63 63 62 63 62 63 63
56 56 56 56 56 56 56 56 56 57 57 57 59 59 60 60 61 62 63 63 63 63 63 63 63 63 63 63 63 62 63 63 63 63 63 63 63 63 63 63 63 64
55 55 55 55 55 55 55 55 55 55 56 56 57 58 58 58 59 59 59 59 60 61 61 61 61 62 63 63 63 63 63 63 63 63 63 63 63 64 64 64 64 64
54 54 54 54 55 55 54 54 54 55 55 56 56 56 56 57 57 57 57 57 57 58 59 60 60 60 61 62 63 63 63 63 62 61 60 60 60 61 62 62 63 63
53 54 54 54 54 54 53 54 54 54 55 55 55 55 56 56 57 57 56 56 57 56 57 58 58 58 60 60 61 61 61 61 61 61 60 59 59 60 61 62 62 62
53 54 53 53 53 53 53 53 53 54 53 54 54 55 55 56 56 56 56 56 56 56 56 55 55 55 57 56 58 60 60 59 59 59 59 59 59 59 58 58 58 58
53 53 53 53 52 52 52 53 53 53 53 53 53 54 54 55 55 55 55 55 55 55 54 52 52 52 48 45 47 53 59 58 57 56 57 56 56 57 57 56 54 55
52 52 52 52 52 52 52 52 52 52 52 52 52 52 53 54 53 54 54 54 54 54 53 52 50 46 42 43 45 47 53 56 55 55 54 54 54 55 55 53 52 52
51 51 52 52 52 51 52 51 51 51 51 51 51 52 52 52 52 53 53 53 53 53 51 51 49 44 41 43 43 44 46 53 54 53 53 52 52 52 52 52 52 51
50 51 51 51 51 51 51 51 50 49 49 50 51 51 51 51 51 52 52 52 52 51 50 49 48 44 42 43 43 43 44 48 52 51 51 51 51 51 50 50 50 50
49 50 50 50 50 50 50 49 49 48 49 49 49 50 49 49 50 50 51 51 50 50 48 47 47 43 41 42 42 42 43 47 50 50 50 50 50 50 50 50 49 49
49 49 49 49 49 49 49 48 48 49 49 50 49 48 49 49 49 50 49 49 49 49 48 47 46 41 42 42 43 43 45 49 49 49 49 49 50 50 50 50 50 49
48 48 48 48 48 48 48 48 48 48 48 48 47 47 48 48 48 49 50 50 49 48 47 46 46 43 41 42 42 43 45 48 48 48 48 48 47 49 50 51 51 51
48 49 49 48 48 48 47 47 47 47 46 48 47 47 47 47 49 49 49 49 48 47 47 45 45 44 41 42 42 43 47 47 47 47 46 47 47 48 49 49 53 54
47 48 48 47 48 47 47 48 47 47 47 46 46 47 47 49 50 49 48 49 49 49 50 46 45 45 42 41 42 43 46 47 47 47 46 46 47 46 47 47 48 50
47 48 47 47 47 46 46 44 46 45 44 45 45 46 46 48 48 48 47 47 48 48 47 46 45 45 44 40 42 42 44 48 47 47 46 46 47 48 46 46 46 47
MSLP
1017.14 1017.22 1017.26 1017.26 1017.22 1017.22 1017.22 1017.34 1017.42 1017.66 1017.82 1017.90 1018.02 1018.06 1018.74 1018.30 1018.26 1018.34 1018.18 1018.30 1018.58 1019.18 1019.54 1019.06 1018.94 1019.06 1019.14 1019.26 1019.38 1019.54 1019.66 1019.74 1019.86 1019.98 1020.18 1020.30 1020.50 1020.62 1020.78 1020.86 1020.98 1021.06
1016.94 1016.98 1016.94 1016.94 1016.90 1016.78 1016.78 1016.86 1017.02 1017.18 1017.42 1017.66 1017.66 1017.70 1017.90 1018.34 1017.94 1018.02 1018.14 1018.30 1018.66 1019.14 1019.86 1019.14 1018.74 1018.78 1018.90 1019.06 1019.18 1019.42 1019.58 1019.70 1019.78 1019.78 1019.98 1020.18 1020.26 1020.38 1020.50 1020.54 1020.62 1020.78
1016.74 1016.70 1016.74 1016.74 1016.70 1016.66 1016.66 1016.66 1016.78 1016.86 1016.98 1017.10 1017.26 1017.30 1017.50 1017.78 1017.62 1017.74 1017.94 1018.06 1018.46 1019.26 1019.54 1018.62 1018.50 1018.54 1018.62 1018.78 1018.94 1019.18 1019.42 1019.58 1019.66 1019.66 1019.78 1019.90 1020.06 1020.22 1020.18 1020.26 1020.42 1020.62
1016.58 1016.46 1016.38 1016.30 1016.38 1016.50 1016.50 1016.58 1016.70 1016.82 1016.90 1016.98 1016.86 1016.86 1016.98 1017.02 1017.26 1017.66 1017.90 1018.06 1018.82 1019.22 1018.70 1018.38 1018.30 1018.38 1018.42 1018.54 1018.78 1019.10 1019.22 1019.34 1019.30 1019.50 1019.70 1019.86 1019.94 1019.94 1020.02 1020.10 1020.22 1020.42
1016.66 1016.50 1016.30 1016.14 1016.06 1016.14 1016.18 1016.22 1016.30 1016.46 1016.58 1016.50 1016.54 1016.70 1017.02 1017.34 1017.42 1017.46 1017.70 1018.02 1018.46 1018.26 1018.14 1018.18 1018.18 1018.18 1018.22 1018.42 1018.62 1018.94 1019.14 1019.22 1019.34 1019.46 1019.58 1019.70 1019.74 1019.86 1019.98 1020.14 1020.30 1020.42
1016.58 1016.34 1016.14 1016.10 1016.10 1016.14 1016.18 1016.14 1016.10 1016.22 1016.26 1016.46 1016.62 1016.66 1016.90 1017.26 1017.50 1017.30 1017.30 1017.46 1017.62 1017.70 1017.82 1017.90 1017.98 1018.02 1018.10 1018.26 1018.54 1018.70 1018.90 1019.14 1019.30 1019.42 1019.50 1019.58 1019.70 1019.86 1020.02 1020.18 1020.38 1020.50
1016.66 1016.34 1016.18 1016.18 1016.22 1016.22 1016.22 1016.18 1016.10 1016.10 1016.18 1016.14 1016.26 1016.46 1016.58 1016.70 1017.02 1017.42 1017.62 1017.22 1017.22 1017.38 1017.54 1017.66 1017.74 1017.90 1018.06 1018.26 1018.50 1018.70 1018.86 1018.94 1019.10 1019.30 1019.46 1019.62 1019.78 1019.94 1020.06 1020.18 1020.34 1020.42
1016.66 1016.42 1016.42 1016.46 1016.42 1016.38 1016.38 1016.30 1016.18 1016.06 1016.06 1016.18 1016.22 1016.26 1016.34 1016.58 1016.94 1017.26 1017.54 1017.10 1016.94 1017.10 1017.34 1017.46 1017.58 1017.78 1018.06 1018.30 1018.58 1018.70 1018.82 1018.86 1019.02 1019.26 1019.50 1019.70 1019.78 1019.94 1020.10 1020.22 1020.34 1020.42
1016.86 1016.74 1016.46 1016.54 1016.62 1016.70 1016.66 1016.42 1016.18 1016.10 1015.98 1016.06 1016.18 1016.30 1016.38 1016.54 1016.82 1017.10 1017.18 1016.78 1016.70 1016.90 1017.14 1017.30 1017.42 1017.66 1017.94 1018.18 1018.42 1018.54 1018.66 1018.82 1018.90 1019.06 1019.30 1019.46 1019.54 1019.58 1019.70 1019.90 1020.14 1020.38
1016.98 1016.94 1016.90 1016.90 1016.90 1016.78 1016.82 1016.82 1016.42 1016.14 1016.02 1016.06 1016.14 1016.22 1016.34 1016.50 1016.66 1016.90 1016.90 1016.70 1016.54 1016.74 1016.90 1017.10 1017.34 1017.62 1017.82 1018.10 1018.38 1018.46 1018.54 1018.66 1018.78 1018.94 1019.10 1019.26 1019.46 1019.78 1020.06 1020.22 1020.34 1020.46
1017.14 1017.10 1017.10 1017.18 1017.22 1017.14 1016.98 1017.06 1016.94 1016.62 1016.38 1016.18 1016.18 1016.26 1016.30 1016.38 1016.54 1016.66 1016.82 1016.74 1016.82 1016.78 1016.94 1017.10 1017.34 1017.62 1017.90 1018.22 1018.34 1018.30 1018.34 1018.50 1018.74 1018.90 1019.06 1019.22 1019.38 1019.66 1019.82 1019.98 1020.22 1020.38
1017.54 1017.42 1017.42 1017.42 1017.46 1017.42 1017.18 1017.02 1017.26 1017.22 1017.02 1016.78 1016.50 1016.50 1016.46 1016.46 1016.50 1016.58 1016.74 1016.86 1016.90 1016.90 1016.90 1017.02 1017.26 1017.50 1017.78 1017.94 1018.06 1018.10 1018.22 1018.34 1018.50 1018.78 1019.02 1019.26 1019.42 1019.54 1019.50 1019.66 1019.94 1020.18
1017.98 1017.94 1017.86 1017.86 1017.74 1017.74 1017.50 1017.30 1017.62 1017.70 1017.46 1017.34 1017.14 1016.90 1016.86 1016.82 1016.74 1016.74 1016.94 1016.98 1016.90 1016.86 1016.94 1017.06 1017.30 1017.50 1017.62 1017.78 1017.94 1018.06 1018.18 1018.34 1018.54 1018.70 1019.02 1019.34 1019.42 1019.34 1019.34 1019.54 1019.86 1020.18
1018.34 1018.22 1018.18 1018.10 1018.06 1017.98 1017.94 1017.90 1017.94 1017.90 1017.78 1017.70 1017.54 1017.46 1017.34 1017.18 1017.34 1017.10 1017.22 1017.34 1017.34 1017.26 1017.34 1017.46 1017.62 1017.66 1017.66 1017.74 1017.86 1018.02 1018.18 1018.38 1018.62 1019.02 1019.38 1019.46 1019.22 1019.22 1019.62 1020.06 1020.30 1020.42
1018.54 1018.50 1018.42 1018.34 1018.26 1018.26 1018.18 1018.14 1018.26 1018.38 1018.34 1018.18 1018.02 1017.90 1017.74 1017.50 1017.26 1017.38 1017.66 1017.66 1017.78 1017.82 1018.02 1018.14 1018.06 1018.02 1017.94 1017.94 1018.10 1018.34 1018.46 1018.74 1018.98 1019.10 1019.02 1018.94 1019.02 1019.50 1020.06 1020.34 1020.46 1020.58
1018.66 1018.66 1018.66 1018.58 1018.54 1018.62 1018.58 1018.46 1018.54 1018.78 1018.90 1018.74 1018.58 1018.46 1018.34 1018.22 1017.86 1017.74 1018.18 1018.18 1018.30 1018.34 1018.34 1018.50 1018.66 1018.62 1018.38 1018.22 1018.18 1018.38 1018.62 1018.78 1018.90 1018.94 1019.06 1019.26 1019.70 1020.14 1020.42 1020.70 1020.98 1021.10
1018.74 1018.78 1018.70 1018.78 1018.82 1018.86 1018.82 1018.82 1018.90 1018.98 1019.10 1019.14 1019.10 1018.94 1018.82 1018.94 1018.66 1018.58 1018.58 1018.54 1018.58 1018.78 1018.94 1019.30 1019.62 1019.54 1018.90 1018.70 1018.58 1018.46 1018.38 1018.54 1018.78 1019.26 1019.58 1019.82 1020.10 1020.34 1020.70 1021.10 1021.42 1021.46
1018.98 1018.98 1018.94 1018.98 1018.98 1018.98 1018.90 1018.86 1018.82 1018.94 1019.06 1019.26 1019.46 1019.46 1019.42 1019.22 1019.22 1019.02 1018.82 1018.90 1018.98 1019.22 1019.50 1019.82 1019.82 1019.70 1019.14 1018.98 1018.86 1018.70 1018.70 1018.94 1019.22 1019.58 1020.02 1020.42 1020.70 1020.90 1021.10 1021.42 1021.54 1021.62
1019.14 1019.14 1019.14 1019.10 1019.14 1019.18 1019.22 1019.34 1019.42 1019.50 1019.58 1019.70 1019.82 1019.78 1019.58 1019.26 1019.14 1019.02 1019.10 1019.26 1019.34 1019.46 1019.54 1019.54 1019.58 1019.66 1019.18 1019.10 1019.06 1019.10 1019.18 1019.34 1019.74 1020.10 1020.38 1020.78 1021.06 1021.26 1021.50 1021.74 1021.82 1021.82
1019.22 1019.22 1019.18 1019.22 1019.22 1019.22 1019.30 1019.46 1019.70 1019.90 1020.02 1019.98 1019.86 1019.70 1019.58 1019.54 1019.50 1019.46 1019.50 1019.50 1019.46 1019.46 1019.46 1019.46 1019.58 1019.70 1019.34 1019.26 1019.34 1019.46 1019.66 1019.86 1020.30 1020.62 1020.98 1021.26 1021.54 1021.78 1021.98 1022.14 1022.18 1022.18
1019.34 1019.34 1019.34 1019.38 1019.38 1019.38 1019.46 1019.58 1019.74 1019.86 1019.82 1019.82 1019.82 1019.78 1019.74 1019.70 1019.66 1019.62 1019.74 1019.74 1019.66 1019.54 1019.58 1019.82 1020.06 1019.90 1019.66 1019.70 1019.82 1019.94 1020.18 1020.38 1020.74 1020.98 1021.30 1021.58 1021.78 1021.98 1022.10 1022.26 1022.38 1022.42
1019.38 1019.46 1019.58 1019.66 1019.66 1019.70 1019.70 1019.82 1019.90 1019.94 1019.86 1019.86 1019.78 1019.74 1019.70 1019.62 1019.70 1019.74 1019.82 1019.86 1019.82 1019.70 1019.70 1020.06 1020.38 1020.30 1020.06 1020.06 1020.10 1020.22 1020.34 1020.70 1020.98 1021.22 1021.54 1021.82 1022.02 1022.22 1022.34 1022.42 1022.50 1022.54
1019.46 1019.46 1019.62 1019.74 1019.78 1019.78 1019.90 1020.02 1020.14 1020.18 1020.14 1020.06 1019.86 1019.82 1019.66 1019.70 1019.78 1019.90 1019.98 1019.98 1020.02 1020.02 1020.06 1020.38 1020.58 1020.66 1020.54 1020.50 1020.54 1020.70 1020.74 1021.18 1021.38 1021.62 1021.94 1022.10 1022.34 1022.38 1022.34 1022.38 1022.38 1022.42
1019.58 1019.50 1019.62 1019.74 1019.78 1019.86 1019.98 1020.14 1020.26 1020.34 1020.22 1020.06 1019.82 1019.74 1019.78 1019.98 1020.02 1020.18 1020.38 1020.42 1020.50 1020.62 1020.66 1020.82 1021.18 1021.30 1021.18 1021.14 1021.18 1021.30 1021.42 1021.62 1021.82 1021.90 1022.18 1022.34 1022.42 1022.46 1022.50 1022.46 1022.30 1022.30
1019.58 1019.58 1019.62 1019.70 1019.74 1019.82 1019.90 1019.98 1020.10 1020.18 1020.38 1020.22 1020.02 1020.06 1020.22 1020.26 1020.26 1020.50 1020.82 1020.86 1020.90 1020.98 1021.02 1021.22 1021.50 1021.66 1021.66 1021.62 1021.62 1021.70 1021.78 1021.94 1021.98 1022.02 1022.14 1022.42 1022.46 1022.58 1022.70 1022.70 1022.74 1022.66
1019.58 1019.50 1019.58 1019.66 1019.74 1019.90 1020.06 1020.14 1020.34 1020.34 1020.26 1020.26 1020.50 1020.54 1020.54 1020.58 1020.66 1020.86 1021.10 1021.34 1021.34 1021.46 1021.62 1021.70 1021.74 1021.94 1022.02 1021.98 1021.94 1021.98 1022.02 1022.06 1022.10 1022.02 1022.22 1022.50 1022.58 1022.58 1022.70 1022.90 1022.94 1022.94
Wind_Speed
4 3 2 3 6 7 8 9 9 10 10 10 10 8 7 5 7 7 7 7 8 9 8 7 8 7 7 7 7 7 6 7 6 6 7 7 6 7 7 7 6 7
4 5 5 5 6 7 7 7 7 10 11 11 11 10 8 5 7 7 7 6 6 7 11 9 8 8 8 7 7 7 6 6 7 5 7 7 7 7 7 8 8 6
4 6 7 8 8 8 8 7 6 6 9 11 10 9 8 9 7 7 7 7 7 9 12 9 8 8 8 8 7 7 7 7 7 6 6 8 6 6 7 6 5 7
5 6 7 8 8 7 6 6 6 6 4 5 8 9 10 9 8 8 8 11 11 12 9 7 7 7 7 7 7 6 7 7 7 6 6 4 5 6 6 5 5 4
5 6 6 6 6 6 6 7 7 7 8 7 7 7 6 7 8 9 9 10 12 9 7 7 6 6 6 6 7 7 6 6 5 6 6 6 5 5 4 4 4 4
3 5 5 6 5 5 5 6 5 5 7 9 8 6 7 7 5 6 8 8 6 7 7 7 7 7 6 6 6 6 6 5 5 5 5 6 5 3 2 3 3 4
5 5 4 2 2 4 5 5 3 4 3 4 5 6 6 5 5 5 5 6 7 7 7 7 7 6 4 5 5 5 4 5 5 5 5 4 3 3 3 3 4 4
6 6 7 6 6 3 2 2 3 4 4 3 5 4 5 6 7 7 7 8 8 7 7 6 6 5 4 4 5 5 5 4 5 5 4 3 3 3 2 2 2 3
6 6 7 7 8 7 8 3 2 3 3 5 5 5 5 5 5 6 7 8 7 7 7 6 5 5 5 5 5 6 6 5 5 6 6 6 6 5 5 4 4 4
7 6 8 8 8 7 8 7 6 4 2 3 3 4 6 6 7 7 5 5 7 7 7 6 6 5 5 5 5 6 6 7 6 6 6 5 4 2 2 2 2 2
6 7 8 9 8 7 9 8 7 6 6 4 3 3 3 5 7 7 5 5 5 8 8 8 6 6 5 5 5 5 6 7 6 6 5 5 5 4 5 4 2 2
6 7 8 8 7 6 7 8 8 8 7 7 5 4 4 4 4 4 4 6 7 7 7 6 6 5 5 6 6 6 6 6 6 6 6 5 5 5 5 4 2 2
6 7 7 6 6 6 6 8 7 6 7 7 6 6 5 5 5 7 4 4 5 6 6 7 6 6 6 7 7 6 6 7 7 8 7 5 5 5 4 4 3 2
6 6 6 7 7 7 7 7 7 7 7 6 6 7 6 7 6 7 6 6 5 7 6 5 6 7 7 8 8 8 9 9 8 8 7 7 8 9 7 5 4 3
5 5 5 6 7 7 7 7 7 7 6 7 7 7 6 6 7 8 7 8 7 8 7 6 7 6 6 7 9 8 8 9 8 7 7 8 8 7 5 5 5 5
5 5 6 6 6 6 6 6 6 5 5 6 7 6 6 6 7 7 6 6 7 7 7 8 7 5 7 10 8 8 8 6 6 7 7 6 5 4 5 5 5 4
5 5 6 7 5 5 5 5 5 3 4 5 5 5 5 4 4 7 6 5 7 7 8 7 5 4 10 12 12 11 8 8 7 6 6 6 5 4 4 5 3 3
5 5 5 5 5 5 5 5 4 4 4 5 4 3 1 3 5 5 6 6 6 7 7 5 5 8 11 13 14 14 12 8 7 6 6 5 4 4 4 4 3 3
4 5 5 4 4 4 4 4 4 3 3 3 3 1 1 4 4 5 6 5 5 6 6 5 6 9 11 13 14 14 14 10 7 6 6 6 5 5 5 4 3 3
4 5 5 4 3 4 4 4 4 3 2 1 1 2 4 4 4 5 5 5 5 6 8 7 7 10 13 14 14 14 14 11 7 7 7 6 6 6 5 5 4 4
5 5 5 3 3 4 4 4 3 2 2 2 2 3 3 4 4 5 5 5 6 6 7 7 6 11 13 13 13 13 13 10 7 6 6 6 6 6 5 5 5 4
5 5 4 4 3 3 4 3 2 1 2 2 2 3 3 4 4 5 6 7 6 7 8 8 8 12 12 12 12 12 11 7 7 7 7 6 6 5 5 4 4 4
5 6 5 3 4 4 4 3 2 2 1 1 3 3 4 5 5 5 5 6 7 7 9 8 8 11 12 11 10 10 8 6 6 6 5 6 5 4 3 3 3 5
5 6 5 4 4 5 4 2 1 1 2 1 3 3 5 4 5 6 5 6 7 7 7 9 7 8 10 10 10 9 7 6 5 6 6 5 5 5 4 4 6 10
4 5 5 4 4 3 3 3 2 2 1 1 3 4 4 4 5 6 6 5 6 7 11 10 7 6 9 9 9 8 6 5 4 5 6 5 4 5 4 4 4 5
4 4 4 4 4 3 2 2 1 2 3 4 4 4 5 5 6 7 8 5 5 6 5 5 7 6 7 9 9 9 7 5 3 5 5 5 4 4 4 4 4 3
Wind_Direction
199 197 185 214 213 213 215 209 203 206 212 216 217 204 210 207 177 186 175 167 180 213 237 200 189 188 191 193 197 199 200 199 198 195 197 194 203 196 202 208 206 214
227 230 231 224 226 219 216 209 207 204 206 207 216 216 199 215 192 183 176 173 179 196 232 217 193 191 191 191 193 196 203 195 201 191 192 194 203 195 206 206 210 209
236 228 231 229 229 228 227 223 210 209 208 197 203 207 196 207 194 181 177 171 188 204 216 202 193 196 194 194 189 194 195 192 200 195 190 199 193 190 212 201 200 197
244 236 235 234 232 232 224 221 216 204 183 191 196 195 192 194 190 182 179 180 194 208 203 181 183 184 189 189 182 191 193 196 201 181 189 191 193 199 208 192 201 193
298 271 249 245 231 225 212 210 210 200 202 196 196 184 191 197 197 189 186 180 188 187 176 180 184 184 174 169 173 179 186 193 180 172 180 194 198 193 199 169 193 220
335 312 277 256 246 226 217 219 203 200 207 199 202 186 183 186 213 205 186 174 173 171 171 171 182 192 184 169 165 175 175 172 170 172 185 201 193 178 144 164 188 219
1 8 342 272 264 237 226 220 197 179 208 197 166 181 175 179 179 202 224 174 160 164 169 170 172 171 166 158 163 156 160 166 162 175 193 198 152 158 162 176 202 219
29 39 39 27 8 331 247 204 189 183 172 181 181 180 164 174 180 187 198 180 160 155 160 164 159 149 143 150 163 168 164 161 160 167 170 137 133 158 178 194 200 229
47 44 59 61 53 30 10 347 215 152 173 176 173 172 178 175 180 190 195 173 156 153 153 156 148 147 148 154 166 169 160 152 155 157 163 151 161 172 185 183 194 226
55 53 52 45 47 49 42 12 17 32 72 139 140 156 172 181 184 203 202 177 153 152 156 158 157 154 159 165 171 166 157 149 150 159 164 158 146 113 111 143 176 220
49 53 58 52 45 37 49 33 16 28 24 41 108 145 168 186 182 182 187 165 166 163 161 161 157 154 152 167 172 168 158 150 152 149 137 141 142 141 134 129 159 233
46 49 54 58 49 40 54 55 35 21 25 23 34 68 84 88 97 119 148 162 169 164 151 143 147 154 163 168 166 156 146 145 144 133 130 144 147 138 128 136 166 205
59 58 62 57 56 42 39 54 47 30 32 32 20 40 49 67 94 100 77 101 111 111 110 110 105 110 122 134 136 132 132 134 131 125 129 128 120 124 114 114 115 100
63 66 64 63 57 51 40 42 48 36 34 29 30 30 38 60 49 63 63 57 55 70 73 78 96 97 99 100 109 117 111 105 99 100 103 101 89 75 72 72 79 77
80 70 69 73 77 70 59 46 35 30 26 32 33 30 29 48 72 63 66 75 66 72 69 69 71 78 89 103 106 100 101 105 107 107 105 92 81 74 69 72 56 54
84 85 80 76 69 74 78 73 58 42 31 30 35 25 25 27 58 69 57 79 81 74 77 70 63 54 77 91 105 117 111 106 95 84 76 76 82 89 83 69 60 57
77 78 81 72 72 71 65 76 78 73 69 64 48 34 31 32 59 81 81 75 86 84 78 72 58 44 75 80 81 89 97 92 91 78 74 74 77 85 96 94 78 54
88 91 86 85 82 70 59 54 41 32 47 53 55 62 59 99 86 83 87 82 82 83 81 81 80 49 67 69 70 72 78 83 75 78 78 77 87 96 95 93 84 65
98 92 87 85 82 87 89 84 77 52 34 46 69 354 71 67 58 68 68 75 87 90 76 63 71 38 55 66 71 73 76 80 73 77 79 73 72 73 76 77 71 59
103 97 90 80 74 77 75 79 79 73 83 47 85 59 77 76 75 78 76 76 72 76 72 53 54 38 60 66 70 70 70 74 74 76 77 79 80 86 90 87 73 68
105 103 102 79 63 61 61 60 57 38 30 25 39 52 58 66 70 77 71 70 67 69 69 56 42 41 62 67 71 75 75 79 75 78 78 76 76 75 78 76 70 64
127 119 112 108 94 78 78 78 81 79 52 6 43 36 49 70 60 68 74 70 65 68 71 59 43 37 56 63 67 69 74 74 72 72 75 75 70 78 88 94 91 76
138 129 127 122 113 101 91 87 84 45 360 12 60 33 48 49 53 66 70 74 65 56 70 57 43 29 45 58 63 68 74 71 74 75 73 71 62 51 59 69 108 82
148 137 133 135 122 119 122 130 156 164 17 358 109 88 69 68 85 72 65 75 78 69 72 78 54 32 46 58 67 66 82 91 90 92 80 73 70 50 47 36 43 54
145 137 136 138 137 140 135 127 94 49 24 32 69 78 72 81 86 89 80 70 78 82 83 82 71 50 48 59 66 69 80 85 91 100 92 71 77 66 45 49 30 35
154 143 145 144 149 152 119 125 81 53 52 85 70 84 94 87 90 97 92 69 62 72 67 67 80 59 47 54 62 66 69 82 65 91 91 86 74 80 66 42 36 20